Location: Baix
(44.7118°N, 4.7648°E)
Time: 02:06:30
(UTC+00:00)

Cosmos 2263 Rocket - Pass Details

Date: 07 August 2020
Orbit: 824 x 848 km, 71.0° (Epoch: 19 September)

Event Time Altitude Azimuth Distance (km) Brightness Sun altitude
Exits shadow 02:24:01 13° 162° (SSE) 2,216 4.1 -19.3°
Maximum altitude 02:28:12 32° 104° (ESE) 1,398 3.6 -18.8°
Drops below altitude 10° 02:33:03 10° 44° (NE) 2,431 5.9 -18.2°
Sets 02:35:42 0° 34° (NE) 3,368 7.0 -17.9°
